Year,Month,Day,Hour,Minute,Value (Times are PST for windgust in km/hr)
2015,12,11,00,00,6.40
2015,12,11,00,01,6.40
2015,12,11,00,02,6.40
2015,12,11,00,03,4.80
2015,12,11,00,04,4.80
2015,12,11,00,05,8.10
2015,12,11,00,06,8.10
2015,12,11,00,07,4.80
2015,12,11,00,08,3.20
2015,12,11,00,09,4.80
2015,12,11,00,10,4.80
2015,12,11,00,11,4.80
2015,12,11,00,12,4.80
2015,12,11,00,13,6.40
2015,12,11,00,14,6.40
2015,12,11,00,15,6.40
2015,12,11,00,16,6.40
2015,12,11,00,17,6.40
2015,12,11,00,18,6.40
2015,12,11,00,19,6.40
2015,12,11,00,20,6.40
2015,12,11,00,21,6.40
2015,12,11,00,22,6.40
2015,12,11,00,23,6.40
2015,12,11,00,24,6.40
2015,12,11,00,25,6.40
2015,12,11,00,26,4.80
2015,12,11,00,27,6.40
2015,12,11,00,28,6.40
2015,12,11,00,29,6.40
2015,12,11,00,30,8.10
2015,12,11,00,31,6.40
2015,12,11,00,32,8.10
2015,12,11,00,33,6.40
2015,12,11,00,34,6.40
2015,12,11,00,35,6.40
2015,12,11,00,36,6.40
2015,12,11,00,37,6.40
2015,12,11,00,38,8.10
2015,12,11,00,39,8.10
2015,12,11,00,40,6.40
2015,12,11,00,41,8.10
2015,12,11,00,42,8.10
2015,12,11,00,43,6.40
2015,12,11,00,44,6.40
2015,12,11,00,45,8.10
2015,12,11,00,46,8.10
2015,12,11,00,47,8.10
2015,12,11,00,48,6.40
2015,12,11,00,49,8.10
2015,12,11,00,50,6.40
2015,12,11,00,51,6.40
2015,12,11,00,52,3.20
2015,12,11,00,53,4.80
2015,12,11,00,54,4.80
2015,12,11,00,55,4.80
2015,12,11,00,56,6.40
2015,12,11,00,57,6.40
2015,12,11,00,58,6.40
2015,12,11,00,59,6.40
2015,12,11,01,00,6.40
2015,12,11,01,01,6.40
2015,12,11,01,02,6.40
2015,12,11,01,03,6.40
2015,12,11,01,04,6.40
2015,12,11,01,05,6.40
2015,12,11,01,06,6.40
2015,12,11,01,07,6.40
2015,12,11,01,08,6.40
2015,12,11,01,09,6.40
2015,12,11,01,10,8.10
2015,12,11,01,11,8.10
2015,12,11,01,12,8.10
2015,12,11,01,13,8.10
2015,12,11,01,14,8.10
2015,12,11,01,15,8.10
2015,12,11,01,16,8.10
2015,12,11,01,17,8.10
2015,12,11,01,18,6.40
2015,12,11,01,19,8.10
2015,12,11,01,20,8.10
2015,12,11,01,21,8.10
2015,12,11,01,22,8.10
2015,12,11,01,23,8.10
2015,12,11,01,24,8.10
2015,12,11,01,25,8.10
2015,12,11,01,26,8.10
2015,12,11,01,27,8.10
2015,12,11,01,28,8.10
2015,12,11,01,29,8.10
2015,12,11,01,30,9.60
2015,12,11,01,31,9.60
2015,12,11,01,32,9.60
2015,12,11,01,33,8.10
2015,12,11,01,34,8.10
2015,12,11,01,35,8.10
2015,12,11,01,36,8.10
2015,12,11,01,37,6.40
2015,12,11,01,38,8.10
2015,12,11,01,39,6.40
2015,12,11,01,40,8.10
2015,12,11,01,41,6.40
2015,12,11,01,42,8.10
2015,12,11,01,43,8.10
2015,12,11,01,44,9.60
2015,12,11,01,45,8.10
2015,12,11,01,46,8.10
2015,12,11,01,47,9.60
2015,12,11,01,48,8.10
2015,12,11,01,49,8.10
2015,12,11,01,50,8.10
2015,12,11,01,51,6.40
2015,12,11,01,52,6.40
2015,12,11,01,53,6.40
2015,12,11,01,54,6.40
2015,12,11,01,55,8.10
2015,12,11,01,56,8.10
2015,12,11,01,57,8.10
2015,12,11,01,58,8.10
2015,12,11,01,59,8.10
2015,12,11,02,00,6.40
2015,12,11,02,01,6.40
2015,12,11,02,02,6.40
2015,12,11,02,03,6.40
2015,12,11,02,04,6.40
2015,12,11,02,05,6.40
2015,12,11,02,06,6.40
2015,12,11,02,07,6.40
2015,12,11,02,08,6.40
2015,12,11,02,09,6.40
2015,12,11,02,10,8.10
2015,12,11,02,11,6.40
2015,12,11,02,12,8.10
2015,12,11,02,13,8.10
2015,12,11,02,14,6.40
2015,12,11,02,15,4.80
2015,12,11,02,16,6.40
2015,12,11,02,17,4.80
2015,12,11,02,18,6.40
2015,12,11,02,19,8.10
2015,12,11,02,20,8.10
2015,12,11,02,21,8.10
2015,12,11,02,22,8.10
2015,12,11,02,23,6.40
2015,12,11,02,24,8.10
2015,12,11,02,25,8.10
2015,12,11,02,26,8.10
2015,12,11,02,27,8.10
2015,12,11,02,28,8.10
2015,12,11,02,29,8.10
2015,12,11,02,30,6.40
2015,12,11,02,31,6.40
2015,12,11,02,32,6.40
2015,12,11,02,33,4.80
2015,12,11,02,34,6.40
2015,12,11,02,35,6.40
2015,12,11,02,36,6.40
2015,12,11,02,37,6.40
2015,12,11,02,38,6.40
2015,12,11,02,39,8.10
2015,12,11,02,40,6.40
2015,12,11,02,41,8.10
2015,12,11,02,42,6.40
2015,12,11,02,43,6.40
2015,12,11,02,44,6.40
2015,12,11,02,45,6.40
2015,12,11,02,46,4.80
2015,12,11,02,47,4.80
2015,12,11,02,48,4.80
2015,12,11,02,49,6.40
2015,12,11,02,50,4.80
2015,12,11,02,51,4.80
2015,12,11,02,52,4.80
2015,12,11,02,53,4.80
2015,12,11,02,54,6.40
2015,12,11,02,55,6.40
2015,12,11,02,56,6.40
2015,12,11,02,57,4.80
2015,12,11,02,58,4.80
2015,12,11,02,59,3.20
2015,12,11,03,00,3.20
2015,12,11,03,01,3.20
2015,12,11,03,02,1.60
2015,12,11,03,03,3.20
2015,12,11,03,04,4.80
2015,12,11,03,05,4.80
2015,12,11,03,06,6.40
2015,12,11,03,07,6.40
2015,12,11,03,08,4.80
2015,12,11,03,09,4.80
2015,12,11,03,10,4.80
2015,12,11,03,11,4.80
2015,12,11,03,12,6.40
2015,12,11,03,13,6.40
2015,12,11,03,14,6.40
2015,12,11,03,15,6.40
2015,12,11,03,16,6.40
2015,12,11,03,17,6.40
2015,12,11,03,18,6.40
2015,12,11,03,19,6.40
2015,12,11,03,20,4.80
2015,12,11,03,21,6.40
2015,12,11,03,22,8.10
2015,12,11,03,23,8.10
2015,12,11,03,24,8.10
2015,12,11,03,25,8.10
2015,12,11,03,26,6.40
2015,12,11,03,27,6.40
2015,12,11,03,28,6.40
2015,12,11,03,29,8.10
2015,12,11,03,30,6.40
2015,12,11,03,31,6.40
2015,12,11,03,32,8.10
2015,12,11,03,33,8.10
2015,12,11,03,34,6.40
2015,12,11,03,35,6.40
2015,12,11,03,36,8.10
2015,12,11,03,37,6.40
2015,12,11,03,38,8.10
2015,12,11,03,39,6.40
2015,12,11,03,40,4.80
2015,12,11,03,41,6.40
2015,12,11,03,42,6.40
2015,12,11,03,43,6.40
2015,12,11,03,44,8.10
2015,12,11,03,45,9.60
2015,12,11,03,46,8.10
2015,12,11,03,47,8.10
2015,12,11,03,48,8.10
2015,12,11,03,49,8.10
2015,12,11,03,50,6.40
2015,12,11,03,51,6.40
2015,12,11,03,52,6.40
2015,12,11,03,53,8.10
2015,12,11,03,54,8.10
2015,12,11,03,55,8.10
2015,12,11,03,56,8.10
2015,12,11,03,57,9.60
2015,12,11,03,58,9.60
2015,12,11,03,59,9.60
2015,12,11,04,00,8.10
2015,12,11,04,01,9.60
2015,12,11,04,02,8.10
2015,12,11,04,03,8.10
2015,12,11,04,04,9.60
2015,12,11,04,05,6.40
2015,12,11,04,06,8.10
2015,12,11,04,07,9.60
2015,12,11,04,08,11.30
2015,12,11,04,09,8.10
2015,12,11,04,10,8.10
2015,12,11,04,11,9.60
2015,12,11,04,12,8.10
2015,12,11,04,13,8.10
2015,12,11,04,14,12.90
2015,12,11,04,15,9.60
2015,12,11,04,16,9.60
2015,12,11,04,17,8.10
2015,12,11,04,18,9.60
2015,12,11,04,19,9.60
2015,12,11,04,20,9.60
2015,12,11,04,21,9.60
2015,12,11,04,22,9.60
2015,12,11,04,23,8.10
2015,12,11,04,24,6.40
2015,12,11,04,25,6.40
2015,12,11,04,26,8.10
2015,12,11,04,27,6.40
2015,12,11,04,28,8.10
2015,12,11,04,29,6.40
2015,12,11,04,30,6.40
2015,12,11,04,31,6.40
2015,12,11,04,32,6.40
2015,12,11,04,33,8.10
2015,12,11,04,34,6.40
2015,12,11,04,35,8.10
2015,12,11,04,36,9.60
2015,12,11,04,37,9.60
2015,12,11,04,38,11.30
2015,12,11,04,39,9.60
2015,12,11,04,40,8.10
2015,12,11,04,41,8.10
2015,12,11,04,42,6.40
2015,12,11,04,43,6.40
2015,12,11,04,44,6.40
2015,12,11,04,45,6.40
2015,12,11,04,46,4.80
2015,12,11,04,47,6.40
2015,12,11,04,48,8.10
2015,12,11,04,49,8.10
2015,12,11,04,50,8.10
2015,12,11,04,51,8.10
2015,12,11,04,52,8.10
2015,12,11,04,53,8.10
2015,12,11,04,54,6.40
2015,12,11,04,55,6.40
2015,12,11,04,56,6.40
2015,12,11,04,57,6.40
2015,12,11,04,58,4.80
2015,12,11,04,59,4.80
2015,12,11,05,00,6.40
2015,12,11,05,01,6.40
2015,12,11,05,02,8.10
2015,12,11,05,03,6.40
2015,12,11,05,04,8.10
2015,12,11,05,05,8.10
2015,12,11,05,06,8.10
2015,12,11,05,07,6.40
2015,12,11,05,08,8.10
2015,12,11,05,09,8.10
2015,12,11,05,10,8.10
2015,12,11,05,11,8.10
2015,12,11,05,12,6.40
2015,12,11,05,13,8.10
2015,12,11,05,14,6.40
2015,12,11,05,15,8.10
2015,12,11,05,16,8.10
2015,12,11,05,17,6.40
2015,12,11,05,18,4.80
2015,12,11,05,19,8.10
2015,12,11,05,20,8.10
2015,12,11,05,21,8.10
2015,12,11,05,22,8.10
2015,12,11,05,23,6.40
2015,12,11,05,24,6.40
2015,12,11,05,25,6.40
2015,12,11,05,26,8.10
2015,12,11,05,27,8.10
2015,12,11,05,28,9.60
2015,12,11,05,29,8.10
2015,12,11,05,30,9.60
2015,12,11,05,31,8.10
2015,12,11,05,32,4.80
2015,12,11,05,33,6.40
2015,12,11,05,34,6.40
2015,12,11,05,35,6.40
2015,12,11,05,36,6.40
2015,12,11,05,37,8.10
2015,12,11,05,38,8.10
2015,12,11,05,39,6.40
2015,12,11,05,40,4.80
2015,12,11,05,41,4.80
2015,12,11,05,42,4.80
2015,12,11,05,43,4.80
2015,12,11,05,44,6.40
2015,12,11,05,45,6.40
2015,12,11,05,46,6.40
2015,12,11,05,47,6.40
2015,12,11,05,48,4.80
2015,12,11,05,49,4.80
2015,12,11,05,50,4.80
2015,12,11,05,51,4.80
2015,12,11,05,52,4.80
2015,12,11,05,53,3.20
2015,12,11,05,54,6.40
2015,12,11,05,55,4.80
2015,12,11,05,56,4.80
2015,12,11,05,57,6.40
2015,12,11,05,58,6.40
2015,12,11,05,59,6.40
2015,12,11,06,00,6.40
2015,12,11,06,01,8.10
2015,12,11,06,02,8.10
2015,12,11,06,03,6.40
2015,12,11,06,04,3.20
2015,12,11,06,05,3.20
2015,12,11,06,06,4.80
2015,12,11,06,07,6.40
2015,12,11,06,08,6.40
2015,12,11,06,09,4.80
2015,12,11,06,10,8.10
2015,12,11,06,11,6.40
2015,12,11,06,12,8.10
2015,12,11,06,13,4.80
2015,12,11,06,14,6.40
2015,12,11,06,15,6.40
2015,12,11,06,16,6.40
2015,12,11,06,17,6.40
2015,12,11,06,18,9.60
2015,12,11,06,19,8.10
2015,12,11,06,20,8.10
2015,12,11,06,21,6.40
2015,12,11,06,22,8.10
2015,12,11,06,23,8.10
2015,12,11,06,24,4.80
2015,12,11,06,25,4.80
2015,12,11,06,26,4.80
2015,12,11,06,27,4.80
2015,12,11,06,28,4.80
2015,12,11,06,29,6.40
2015,12,11,06,30,6.40
2015,12,11,06,31,6.40
2015,12,11,06,32,8.10
2015,12,11,06,33,6.40
2015,12,11,06,34,4.80
2015,12,11,06,35,6.40
2015,12,11,06,36,4.80
2015,12,11,06,37,6.40
2015,12,11,06,38,8.10
2015,12,11,06,39,3.20
2015,12,11,06,40,6.40
2015,12,11,06,41,6.40
2015,12,11,06,42,3.20
2015,12,11,06,43,1.60
2015,12,11,06,44,1.60
2015,12,11,06,45,1.60
2015,12,11,06,46,1.60
2015,12,11,06,47,1.60
2015,12,11,06,48,1.60
2015,12,11,06,49,3.20
2015,12,11,06,50,3.20
2015,12,11,06,51,3.20
2015,12,11,06,52,3.20
2015,12,11,06,53,3.20
2015,12,11,06,54,3.20
2015,12,11,06,55,3.20
2015,12,11,06,56,4.80
2015,12,11,06,57,3.20
2015,12,11,06,58,3.20
2015,12,11,06,59,4.80
2015,12,11,07,00,3.20
2015,12,11,07,01,4.80
2015,12,11,07,02,4.80
2015,12,11,07,03,4.80
2015,12,11,07,04,6.40
2015,12,11,07,05,4.80
2015,12,11,07,06,4.80
2015,12,11,07,07,4.80
2015,12,11,07,08,4.80
2015,12,11,07,09,4.80
2015,12,11,07,10,4.80
2015,12,11,07,11,6.40
2015,12,11,07,12,6.40
2015,12,11,07,13,4.80
2015,12,11,07,14,3.20
2015,12,11,07,15,3.20
2015,12,11,07,16,3.20
2015,12,11,07,17,4.80
2015,12,11,07,18,4.80
2015,12,11,07,19,4.80
2015,12,11,07,20,4.80
2015,12,11,07,21,4.80
2015,12,11,07,22,4.80
2015,12,11,07,23,4.80
2015,12,11,07,24,4.80
2015,12,11,07,25,4.80
2015,12,11,07,26,4.80
2015,12,11,07,27,4.80
2015,12,11,07,28,4.80
2015,12,11,07,29,4.80
2015,12,11,07,30,4.80
2015,12,11,07,31,4.80
2015,12,11,07,32,4.80
2015,12,11,07,33,4.80
2015,12,11,07,34,4.80
2015,12,11,07,35,4.80
2015,12,11,07,36,4.80
2015,12,11,07,37,6.40
2015,12,11,07,38,6.40
2015,12,11,07,39,6.40
2015,12,11,07,40,4.80
2015,12,11,07,41,4.80
2015,12,11,07,42,6.40
2015,12,11,07,43,6.40
2015,12,11,07,44,6.40
2015,12,11,07,45,6.40
2015,12,11,07,46,6.40
2015,12,11,07,47,6.40
2015,12,11,07,48,6.40
2015,12,11,07,49,8.10
2015,12,11,07,50,6.40
2015,12,11,07,51,4.80
2015,12,11,07,52,6.40
2015,12,11,07,53,4.80
2015,12,11,07,54,4.80
2015,12,11,07,55,6.40
2015,12,11,07,56,3.20
2015,12,11,07,57,4.80
2015,12,11,07,58,3.20
2015,12,11,07,59,4.80
2015,12,11,08,00,4.80
2015,12,11,08,01,4.80
2015,12,11,08,02,6.40
2015,12,11,08,03,6.40
2015,12,11,08,04,6.40
2015,12,11,08,05,4.80
2015,12,11,08,06,8.10
2015,12,11,08,07,6.40
2015,12,11,08,08,8.10
2015,12,11,08,09,6.40
2015,12,11,08,10,8.10
2015,12,11,08,11,4.80
2015,12,11,08,12,8.10
2015,12,11,08,13,8.10
2015,12,11,08,14,4.80
2015,12,11,08,15,4.80
2015,12,11,08,16,6.40
2015,12,11,08,17,8.10
2015,12,11,08,18,9.60
2015,12,11,08,19,6.40
2015,12,11,08,20,8.10
2015,12,11,08,21,9.60
2015,12,11,08,22,6.40
2015,12,11,08,23,6.40
2015,12,11,08,24,8.10
2015,12,11,08,25,6.40
2015,12,11,08,26,4.80
2015,12,11,08,27,6.40
2015,12,11,08,28,6.40
2015,12,11,08,29,8.10
2015,12,11,08,30,9.60
2015,12,11,08,31,6.40
2015,12,11,08,32,4.80
2015,12,11,08,33,4.80
2015,12,11,08,34,4.80
2015,12,11,08,35,6.40
2015,12,11,08,36,4.80
2015,12,11,08,37,4.80
2015,12,11,08,38,6.40
2015,12,11,08,39,4.80
2015,12,11,08,40,8.10
2015,12,11,08,41,4.80
2015,12,11,08,42,6.40
2015,12,11,08,43,6.40
2015,12,11,08,44,6.40
2015,12,11,08,45,8.10
2015,12,11,08,46,8.10
2015,12,11,08,47,6.40
2015,12,11,08,48,3.20
2015,12,11,08,49,4.80
2015,12,11,08,50,6.40
2015,12,11,08,51,8.10
2015,12,11,08,52,4.80
2015,12,11,08,53,6.40
2015,12,11,08,54,4.80
2015,12,11,08,55,6.40
2015,12,11,08,56,6.40
2015,12,11,08,57,6.40
2015,12,11,08,58,6.40
2015,12,11,08,59,6.40
2015,12,11,09,00,4.80
2015,12,11,09,01,4.80
2015,12,11,09,02,6.40
2015,12,11,09,03,6.40
2015,12,11,09,04,9.60
2015,12,11,09,05,8.10
2015,12,11,09,06,6.40
2015,12,11,09,07,8.10
2015,12,11,09,08,8.10
2015,12,11,09,09,6.40
2015,12,11,09,10,6.40
2015,12,11,09,11,8.10
2015,12,11,09,12,11.30
2015,12,11,09,13,11.30
2015,12,11,09,14,8.10
2015,12,11,09,15,6.40
2015,12,11,09,16,4.80
2015,12,11,09,17,6.40
2015,12,11,09,18,4.80
2015,12,11,09,19,6.40
2015,12,11,09,20,6.40
2015,12,11,09,21,6.40
2015,12,11,09,22,6.40
2015,12,11,09,23,8.10
2015,12,11,09,24,8.10
2015,12,11,09,25,6.40
2015,12,11,09,26,8.10
2015,12,11,09,27,8.10
2015,12,11,09,28,8.10
2015,12,11,09,29,6.40
2015,12,11,09,30,8.10
2015,12,11,09,31,9.60
2015,12,11,09,32,8.10
2015,12,11,09,33,8.10
2015,12,11,09,34,11.30
2015,12,11,09,35,9.60
2015,12,11,09,36,8.10
2015,12,11,09,37,11.30
2015,12,11,09,38,12.90
2015,12,11,09,39,11.30
2015,12,11,09,40,8.10
2015,12,11,09,41,6.40
2015,12,11,09,42,9.60
2015,12,11,09,43,11.30
2015,12,11,09,44,12.90
2015,12,11,09,45,6.40
2015,12,11,09,46,11.30
2015,12,11,09,47,6.40
2015,12,11,09,48,11.30
2015,12,11,09,49,16.10
2015,12,11,09,50,8.10
2015,12,11,09,51,8.10
2015,12,11,09,52,12.90
2015,12,11,09,53,11.30
2015,12,11,09,54,17.70
2015,12,11,09,55,12.90
2015,12,11,09,56,8.10
2015,12,11,09,57,8.10
2015,12,11,09,58,14.50
2015,12,11,09,59,14.50
2015,12,11,10,00,14.50
2015,12,11,10,01,11.30
2015,12,11,10,02,8.10
2015,12,11,10,03,4.80
2015,12,11,10,04,8.10
2015,12,11,10,05,12.90
2015,12,11,10,06,16.10
2015,12,11,10,07,12.90
2015,12,11,10,08,9.60
2015,12,11,10,09,11.30
2015,12,11,10,10,12.90
2015,12,11,10,11,6.40
2015,12,11,10,12,14.50
2015,12,11,10,13,11.30
2015,12,11,10,14,4.80
2015,12,11,10,15,9.60
2015,12,11,10,16,6.40
2015,12,11,10,17,12.90
2015,12,11,10,18,6.40
2015,12,11,10,19,4.80
2015,12,11,10,20,9.60
2015,12,11,10,21,8.10
2015,12,11,10,22,8.10
2015,12,11,10,23,9.60
2015,12,11,10,24,9.60
2015,12,11,10,25,4.80
2015,12,11,10,26,8.10
2015,12,11,10,27,6.40
2015,12,11,10,28,8.10
2015,12,11,10,29,8.10
2015,12,11,10,30,16.10
2015,12,11,10,31,11.30
2015,12,11,10,32,11.30
2015,12,11,10,33,8.10
2015,12,11,10,34,9.60
2015,12,11,10,35,11.30
2015,12,11,10,36,12.90
2015,12,11,10,37,9.60
2015,12,11,10,38,9.60
2015,12,11,10,39,11.30
2015,12,11,10,40,9.60
2015,12,11,10,41,9.60
2015,12,11,10,42,11.30
2015,12,11,10,43,9.60
2015,12,11,10,44,4.80
2015,12,11,10,45,6.40
2015,12,11,10,46,9.60
2015,12,11,10,47,9.60
2015,12,11,10,48,11.30
2015,12,11,10,49,9.60
2015,12,11,10,50,8.10
2015,12,11,10,51,8.10
2015,12,11,10,52,8.10
2015,12,11,10,53,8.10
2015,12,11,10,54,9.60
2015,12,11,10,55,11.30
2015,12,11,10,56,9.60
2015,12,11,10,57,8.10
2015,12,11,10,58,11.30
2015,12,11,10,59,6.40
2015,12,11,11,00,1.60
2015,12,11,11,01,4.80
2015,12,11,11,02,4.80
2015,12,11,11,03,6.40
2015,12,11,11,04,4.80
2015,12,11,11,05,8.10
2015,12,11,11,06,8.10
2015,12,11,11,07,6.40
2015,12,11,11,08,9.60
2015,12,11,11,09,8.10
2015,12,11,11,10,8.10
2015,12,11,11,11,9.60
2015,12,11,11,12,11.30
2015,12,11,11,13,8.10
2015,12,11,11,14,9.60
2015,12,11,11,15,11.30
2015,12,11,11,16,11.30
2015,12,11,11,17,6.40
2015,12,11,11,18,6.40
2015,12,11,11,19,9.60
2015,12,11,11,20,8.10
2015,12,11,11,21,8.10
2015,12,11,11,22,8.10
2015,12,11,11,23,11.30
2015,12,11,11,24,12.90
2015,12,11,11,25,9.60
2015,12,11,11,26,8.10
2015,12,11,11,27,8.10
2015,12,11,11,28,9.60
2015,12,11,11,29,14.50
2015,12,11,11,30,9.60
2015,12,11,11,31,11.30
2015,12,11,11,32,9.60
2015,12,11,11,33,8.10
2015,12,11,11,34,8.10
2015,12,11,11,35,8.10
2015,12,11,11,36,9.60
2015,12,11,11,37,8.10
2015,12,11,11,38,11.30
2015,12,11,11,39,9.60
2015,12,11,11,40,8.10
2015,12,11,11,41,8.10
2015,12,11,11,42,8.10
2015,12,11,11,43,6.40
2015,12,11,11,44,11.30
2015,12,11,11,45,8.10
2015,12,11,11,46,8.10
2015,12,11,11,47,9.60
2015,12,11,11,48,11.30
2015,12,11,11,49,8.10
2015,12,11,11,50,6.40
2015,12,11,11,51,9.60
2015,12,11,11,52,9.60
2015,12,11,11,53,9.60
2015,12,11,11,54,11.30
2015,12,11,11,55,12.90
2015,12,11,11,56,16.10
2015,12,11,11,57,14.50
2015,12,11,11,58,8.10
2015,12,11,11,59,11.30
2015,12,11,12,00,14.50
2015,12,11,12,01,14.50
2015,12,11,12,02,16.10
2015,12,11,12,03,16.10
2015,12,11,12,04,14.50
2015,12,11,12,05,14.50
2015,12,11,12,06,11.30
2015,12,11,12,07,11.30
2015,12,11,12,08,14.50
2015,12,11,12,09,19.30
2015,12,11,12,10,14.50
2015,12,11,12,11,14.50
2015,12,11,12,12,12.90
2015,12,11,12,13,16.10
2015,12,11,12,14,12.90
2015,12,11,12,15,19.30
2015,12,11,12,16,16.10
2015,12,11,12,17,16.10
2015,12,11,12,18,16.10
2015,12,11,12,19,16.10
2015,12,11,12,20,19.30
2015,12,11,12,21,16.10
2015,12,11,12,22,12.90
2015,12,11,12,23,12.90
2015,12,11,12,24,14.50
2015,12,11,12,25,14.50
2015,12,11,12,26,9.60
2015,12,11,12,27,19.30
2015,12,11,12,28,19.30
2015,12,11,12,29,14.50
2015,12,11,12,30,16.10
2015,12,11,12,31,12.90
2015,12,11,12,32,9.60
2015,12,11,12,33,9.60
2015,12,11,12,34,16.10
2015,12,11,12,35,14.50
2015,12,11,12,36,14.50
2015,12,11,12,37,9.60
2015,12,11,12,38,14.50
2015,12,11,12,39,14.50
2015,12,11,12,40,16.10
2015,12,11,12,41,17.70
2015,12,11,12,42,14.50
2015,12,11,12,43,12.90
2015,12,11,12,44,14.50
2015,12,11,12,45,16.10
2015,12,11,12,46,16.10
2015,12,11,12,47,8.10
2015,12,11,12,48,12.90
2015,12,11,12,49,12.90
2015,12,11,12,50,12.90
2015,12,11,12,51,12.90
2015,12,11,12,52,11.30
2015,12,11,12,53,14.50
2015,12,11,12,54,9.60
2015,12,11,12,55,8.10
2015,12,11,12,56,9.60
2015,12,11,12,57,11.30
2015,12,11,12,58,8.10
2015,12,11,12,59,8.10
2015,12,11,13,00,6.40
2015,12,11,13,01,6.40
2015,12,11,13,02,8.10
2015,12,11,13,03,6.40
2015,12,11,13,04,6.40
2015,12,11,13,05,8.10
2015,12,11,13,06,11.30
2015,12,11,13,07,9.60
2015,12,11,13,08,8.10
2015,12,11,13,09,11.30
2015,12,11,13,10,16.10
2015,12,11,13,11,11.30
2015,12,11,13,12,12.90
2015,12,11,13,13,9.60
2015,12,11,13,14,11.30
2015,12,11,13,15,11.30
2015,12,11,13,16,9.60
2015,12,11,13,17,11.30
2015,12,11,13,18,11.30
2015,12,11,13,19,12.90
2015,12,11,13,20,12.90
2015,12,11,13,21,12.90
2015,12,11,13,22,9.60
2015,12,11,13,23,14.50
2015,12,11,13,24,16.10
2015,12,11,13,25,12.90
2015,12,11,13,26,16.10
2015,12,11,13,27,16.10
2015,12,11,13,28,14.50
2015,12,11,13,29,12.90
2015,12,11,13,30,9.60
2015,12,11,13,31,16.10
2015,12,11,13,32,14.50
2015,12,11,13,33,11.30
2015,12,11,13,34,14.50
2015,12,11,13,35,12.90
2015,12,11,13,36,14.50
2015,12,11,13,37,12.90
2015,12,11,13,38,14.50
2015,12,11,13,39,12.90
2015,12,11,13,40,16.10
2015,12,11,13,41,14.50
2015,12,11,13,42,12.90
2015,12,11,13,43,11.30
2015,12,11,13,44,14.50
2015,12,11,13,45,17.70
2015,12,11,13,46,9.60
2015,12,11,13,47,16.10
2015,12,11,13,48,12.90
2015,12,11,13,49,8.10
2015,12,11,13,50,17.70
2015,12,11,13,51,14.50
2015,12,11,13,52,9.60
2015,12,11,13,53,12.90
2015,12,11,13,54,11.30
2015,12,11,13,55,11.30
2015,12,11,13,56,9.60
2015,12,11,13,57,11.30
2015,12,11,13,58,12.90
2015,12,11,13,59,14.50
2015,12,11,14,00,14.50
2015,12,11,14,01,9.60
2015,12,11,14,02,12.90
2015,12,11,14,03,9.60
2015,12,11,14,04,11.30
2015,12,11,14,05,11.30
2015,12,11,14,06,12.90
2015,12,11,14,07,9.60
2015,12,11,14,08,9.60
2015,12,11,14,09,11.30
2015,12,11,14,10,14.50
2015,12,11,14,11,12.90
2015,12,11,14,12,9.60
2015,12,11,14,13,8.10
2015,12,11,14,14,16.10
2015,12,11,14,15,11.30
2015,12,11,14,16,11.30
2015,12,11,14,17,8.10
2015,12,11,14,18,11.30
2015,12,11,14,19,8.10
2015,12,11,14,20,9.60
2015,12,11,14,21,9.60
2015,12,11,14,22,8.10
2015,12,11,14,23,8.10
2015,12,11,14,24,12.90
2015,12,11,14,25,14.50
2015,12,11,14,26,11.30
2015,12,11,14,27,8.10
2015,12,11,14,28,8.10
2015,12,11,14,29,8.10
2015,12,11,14,30,9.60
2015,12,11,14,31,9.60
2015,12,11,14,32,8.10
2015,12,11,14,33,8.10
2015,12,11,14,34,4.80
2015,12,11,14,35,9.60
2015,12,11,14,36,8.10
2015,12,11,14,37,8.10
2015,12,11,14,38,8.10
2015,12,11,14,39,12.90
2015,12,11,14,40,11.30
2015,12,11,14,41,9.60
2015,12,11,14,42,12.90
2015,12,11,14,43,12.90
2015,12,11,14,44,9.60
2015,12,11,14,45,16.10
2015,12,11,14,46,12.90
2015,12,11,14,47,16.10
2015,12,11,14,48,9.60
2015,12,11,14,49,16.10
2015,12,11,14,50,16.10
2015,12,11,14,51,12.90
2015,12,11,14,52,11.30
2015,12,11,14,53,9.60
2015,12,11,14,54,9.60
2015,12,11,14,55,11.30
2015,12,11,14,56,11.30
2015,12,11,14,57,12.90
2015,12,11,14,58,14.50
2015,12,11,14,59,9.60
2015,12,11,15,00,16.10
2015,12,11,15,01,11.30
2015,12,11,15,02,9.60
2015,12,11,15,03,9.60
2015,12,11,15,04,8.10
2015,12,11,15,05,9.60
2015,12,11,15,06,6.40
2015,12,11,15,07,8.10
2015,12,11,15,08,8.10
2015,12,11,15,09,6.40
2015,12,11,15,10,8.10
2015,12,11,15,11,8.10
2015,12,11,15,12,8.10
2015,12,11,15,13,8.10
2015,12,11,15,14,9.60
2015,12,11,15,15,8.10
2015,12,11,15,16,6.40
2015,12,11,15,17,8.10
2015,12,11,15,18,8.10
2015,12,11,15,19,6.40
2015,12,11,15,20,8.10
2015,12,11,15,21,8.10
2015,12,11,15,22,9.60
2015,12,11,15,23,8.10
2015,12,11,15,24,6.40
2015,12,11,15,25,4.80
2015,12,11,15,26,8.10
2015,12,11,15,27,9.60
2015,12,11,15,28,8.10
2015,12,11,15,29,8.10
2015,12,11,15,30,4.80
2015,12,11,15,31,8.10
2015,12,11,15,32,6.40
2015,12,11,15,33,3.20
2015,12,11,15,34,4.80
2015,12,11,15,35,3.20
2015,12,11,15,36,4.80
2015,12,11,15,37,4.80
2015,12,11,15,38,4.80
2015,12,11,15,39,6.40
2015,12,11,15,40,3.20
2015,12,11,15,41,6.40
2015,12,11,15,42,6.40
2015,12,11,15,43,9.60
2015,12,11,15,44,11.30
2015,12,11,15,45,8.10
2015,12,11,15,46,9.60
2015,12,11,15,47,11.30
2015,12,11,15,48,9.60
2015,12,11,15,49,8.10
2015,12,11,15,50,9.60
2015,12,11,15,51,9.60
2015,12,11,15,52,8.10
2015,12,11,15,53,8.10
2015,12,11,15,54,8.10
2015,12,11,15,55,8.10
2015,12,11,15,56,9.60
2015,12,11,15,57,11.30
2015,12,11,15,58,8.10
2015,12,11,15,59,8.10
2015,12,11,16,00,8.10
2015,12,11,16,01,8.10
2015,12,11,16,02,6.40
2015,12,11,16,03,11.30
2015,12,11,16,04,8.10
2015,12,11,16,05,8.10
2015,12,11,16,06,8.10
2015,12,11,16,07,6.40
2015,12,11,16,08,6.40
2015,12,11,16,09,8.10
2015,12,11,16,10,8.10
2015,12,11,16,11,9.60
2015,12,11,16,12,8.10
2015,12,11,16,13,8.10
2015,12,11,16,14,8.10
2015,12,11,16,15,9.60
2015,12,11,16,16,11.30
2015,12,11,16,17,8.10
2015,12,11,16,18,6.40
2015,12,11,16,19,6.40
2015,12,11,16,20,8.10
2015,12,11,16,21,6.40
2015,12,11,16,22,8.10
2015,12,11,16,23,6.40
2015,12,11,16,24,6.40
2015,12,11,16,25,6.40
2015,12,11,16,26,4.80
2015,12,11,16,27,4.80
2015,12,11,16,28,6.40
2015,12,11,16,29,4.80
2015,12,11,16,30,6.40
2015,12,11,16,31,6.40
2015,12,11,16,32,3.20
2015,12,11,16,33,3.20
2015,12,11,16,34,4.80
2015,12,11,16,35,6.40
2015,12,11,16,36,4.80
2015,12,11,16,37,4.80
2015,12,11,16,38,4.80
2015,12,11,16,39,4.80
2015,12,11,16,40,3.20
2015,12,11,16,41,3.20
2015,12,11,16,42,1.60
2015,12,11,16,43,3.20
2015,12,11,16,44,3.20
2015,12,11,16,45,1.60
2015,12,11,16,46,1.60
2015,12,11,16,47,3.20
2015,12,11,16,48,1.60
2015,12,11,16,49,1.60
2015,12,11,16,50,3.20
2015,12,11,16,51,1.60
2015,12,11,16,52,1.60
2015,12,11,16,53,1.60
2015,12,11,16,54,3.20
2015,12,11,16,55,1.60
2015,12,11,16,56,1.60
2015,12,11,16,57,1.60
2015,12,11,16,58,3.20
2015,12,11,16,59,3.20
2015,12,11,17,00,3.20
2015,12,11,17,01,3.20
2015,12,11,17,02,3.20
2015,12,11,17,03,3.20
2015,12,11,17,04,1.60
2015,12,11,17,05,1.60
2015,12,11,17,06,1.60
2015,12,11,17,07,1.60
2015,12,11,17,08,1.60
2015,12,11,17,09,1.60
2015,12,11,17,10,1.60
2015,12,11,17,14,1.60
2015,12,11,17,17,1.60
2015,12,11,17,18,1.60
2015,12,11,17,19,1.60
2015,12,11,17,20,3.20
2015,12,11,17,21,3.20
2015,12,11,17,22,1.60
2015,12,11,17,23,1.60
2015,12,11,17,24,3.20
2015,12,11,17,25,1.60
2015,12,11,17,26,1.60
2015,12,11,17,27,3.20
2015,12,11,17,28,3.20
2015,12,11,17,29,1.60
2015,12,11,17,30,3.20
2015,12,11,17,31,3.20
2015,12,11,17,32,1.60
2015,12,11,17,33,1.60
2015,12,11,17,34,1.60
2015,12,11,17,35,1.60
2015,12,11,17,36,1.60
2015,12,11,17,37,1.60
2015,12,11,17,38,1.60
2015,12,11,17,39,1.60
2015,12,11,17,40,1.60
2015,12,11,17,41,3.20
2015,12,11,17,42,3.20
2015,12,11,17,43,4.80
2015,12,11,17,44,4.80
2015,12,11,17,45,4.80
2015,12,11,17,46,4.80
2015,12,11,17,47,3.20
2015,12,11,17,48,3.20
2015,12,11,17,49,1.60
2015,12,11,17,50,1.60
2015,12,11,17,51,1.60
2015,12,11,17,52,1.60
2015,12,11,17,53,1.60
2015,12,11,17,54,3.20
2015,12,11,17,55,3.20
2015,12,11,17,56,3.20
2015,12,11,17,57,1.60
2015,12,11,17,58,1.60
2015,12,11,17,59,3.20
2015,12,11,18,00,3.20
2015,12,11,18,01,3.20
2015,12,11,18,02,3.20
2015,12,11,18,03,3.20